TimeEDT,TemperatureF,Dew PointF,Humidity,Sea Level PressureIn,VisibilityMPH,Wind Direction,Wind SpeedMPH,Gust SpeedMPH,PrecipitationIn,Events,Conditions,WindDirDegrees,DateUTC
12:56 AM,54.9,52.9,93,30.27,10.0,Calm,Calm,-,N/A,,Clear,0,2013-08-17 04:56:00
1:56 AM,55.9,54.0,93,30.26,10.0,Calm,Calm,-,N/A,,Scattered Clouds,0,2013-08-17 05:56:00
2:56 AM,54.0,52.9,96,30.27,10.0,Calm,Calm,-,N/A,,Scattered Clouds,0,2013-08-17 06:56:00
3:56 AM,54.9,52.9,93,30.27,10.0,Calm,Calm,-,N/A,,Clear,0,2013-08-17 07:56:00
4:56 AM,52.9,52.0,97,30.28,10.0,Calm,Calm,-,N/A,,Clear,0,2013-08-17 08:56:00
5:56 AM,50.9,50.0,97,30.30,6.0,Calm,Calm,-,N/A,,Clear,0,2013-08-17 09:56:00
6:56 AM,52.0,50.9,96,30.31,10.0,Calm,Calm,-,N/A,,Scattered Clouds,0,2013-08-17 10:56:00
7:56 AM,54.9,54.0,97,30.32,9.0,Calm,Calm,-,N/A,,Clear,0,2013-08-17 11:56:00
8:56 AM,63.0,56.8,80,30.32,10.0,Calm,Calm,-,N/A,,Clear,0,2013-08-17 12:56:00
9:56 AM,68.0,57.9,70,30.32,10.0,Calm,Calm,-,N/A,,Clear,0,2013-08-17 13:56:00
10:56 AM,70.0,57.9,65,30.32,10.0,ESE,3.5,-,N/A,,Partly Cloudy,110,2013-08-17 14:56:00
11:56 AM,73.9,55.9,53,30.31,10.0,Variable,6.9,-,N/A,,Clear,0,2013-08-17 15:56:00
12:56 PM,75.9,54.0,46,30.30,10.0,East,9.2,-,0.00,Rain,Light Rain,100,2013-08-17 16:56:00
1:56 PM,75.9,52.0,43,30.30,10.0,ENE,10.4,-,0.00,,Clear,70,2013-08-17 17:56:00
2:56 PM,75.9,54.9,48,30.29,10.0,East,6.9,-,N/A,,Partly Cloudy,100,2013-08-17 18:56:00
3:56 PM,77.0,54.9,46,30.27,10.0,ENE,9.2,-,0.00,,Partly Cloudy,70,2013-08-17 19:56:00
4:56 PM,75.2,55.4,50,30.23,10.0,Variable,6.9,-,N/A,,Scattered Clouds,0,2013-08-17 20:56:00
5:56 PM,75.9,54.9,48,30.27,10.0,East,5.8,-,N/A,,Scattered Clouds,80,2013-08-17 21:56:00
6:56 PM,72.9,54.9,53,30.27,10.0,East,5.8,-,N/A,,Partly Cloudy,100,2013-08-17 22:56:00
7:56 PM,70.9,54.0,55,30.28,10.0,Calm,Calm,-,N/A,,Clear,0,2013-08-17 23:56:00
8:56 PM,68.9,54.0,59,30.27,10.0,ESE,4.6,-,N/A,,Clear,120,2013-08-18 00:56:00
9:56 PM,65.8,54.9,68,30.27,10.0,Calm,Calm,-,N/A,,Clear,0,2013-08-18 01:56:00
10:56 PM,63.0,54.9,75,30.28,10.0,Calm,Calm,-,N/A,,Clear,0,2013-08-18 02:56:00
11:56 PM,61.9,54.9,78,30.28,10.0,Calm,Calm,-,N/A,,Clear,0,2013-08-18 03:56:00